Big Bear Station Historical Data
Daily Summary for August 13, 2017 Units:  English    Metric   Both
Next Day »
Daily Weekly Monthly Yearly Custom
  High: Low: Average:
Temperature: 82.8 °F 49.8 °F 64.9 °F
Dew Point: 48.4 °F 11.2 °F 35.3 °F
Humidity: 72% 12% 38%
Wind Speed: 7.3mph 0.0mph 2.2mph
Wind Gust: -999.0mph - -
Wind- - SSW
Pressure: 30.27 in 30.21 in -
Precipitation: 0.00 in    
Historical Graphs
 
 
Tabular Data for August 13, 2017
Time Temperature Dew Point Pressure Wind Wind Speed Wind Gust Humidity Rainfall Rate (Hourly)
00:08 59.5 °F 38.7 °F 30.26 in South 2.2 mph -999.0 mph 46% 0 in
00:23 58.3 °F 40.7 °F 30.26 in Calm   -999.0 mph 52% 0 in
00:39 57.6 °F 39.1 °F 30.26 in SSW 1.7 mph -999.0 mph 50% 0 in
00:54 57.2 °F 38.7 °F 30.26 in South 2.7 mph -999.0 mph 50% 0 in
01:09 57.9 °F 37.8 °F 30.26 in South 2.7 mph -999.0 mph 47% 0 in
01:24 57.9 °F 37.2 °F 30.25 in South 1.7 mph -999.0 mph 46% 0 in
01:40 57.7 °F 36.5 °F 30.25 in Calm   -999.0 mph 45% 0 in
01:55 57.6 °F 37.5 °F 30.24 in South 1.7 mph -999.0 mph 47% 0 in
02:10 58.1 °F 35.7 °F 30.24 in Calm   -999.0 mph 43% 0 in
02:25 59.0 °F 35.3 °F 30.24 in Calm   -999.0 mph 41% 0 in
02:41 58.8 °F 35.8 °F 30.24 in South 2.7 mph -999.0 mph 42% 0 in
02:56 57.9 °F 35.5 °F 30.24 in South 1.7 mph -999.0 mph 43% 0 in
03:12 57.6 °F 34.7 °F 30.23 in South 2.2 mph -999.0 mph 42% 0 in
03:27 57.0 °F 34.1 °F 30.23 in South 1.7 mph -999.0 mph 42% 0 in
03:42 56.3 °F 34.1 °F 30.23 in South 2.2 mph -999.0 mph 43% 0 in
03:57 55.4 °F 36.6 °F 30.23 in South 2.2 mph -999.0 mph 49% 0 in
04:13 54.5 °F 39.1 °F 30.23 in South 2.2 mph -999.0 mph 56% 0 in
04:28 53.8 °F 39.8 °F 30.23 in Calm   -999.0 mph 59% 0 in
04:43 52.7 °F 38.3 °F 30.24 in South 2.2 mph -999.0 mph 58% 0 in
04:59 52.3 °F 36.6 °F 30.24 in SSW 1.7 mph -999.0 mph 55% 0 in
05:14 51.8 °F 34.2 °F 30.24 in South 1.7 mph -999.0 mph 51% 0 in
05:29 51.3 °F 34.3 °F 30.24 in South 2.2 mph -999.0 mph 52% 0 in
05:45 50.9 °F 34.8 °F 30.24 in South 1.7 mph -999.0 mph 54% 0 in
06:00 50.5 °F 34.0 °F 30.24 in South 2.7 mph -999.0 mph 53% 0 in
06:15 50.4 °F 34.8 °F 30.24 in Calm   -999.0 mph 55% 0 in
06:30 50.2 °F 37.7 °F 30.25 in Calm   -999.0 mph 62% 0 in
06:45 50.2 °F 41.2 °F 30.25 in Calm   -999.0 mph 71% 0 in
07:01 49.8 °F 41.1 °F 30.25 in Calm   -999.0 mph 72% 0 in
07:16 50.0 °F 37.1 °F 30.25 in Calm   -999.0 mph 61% 0 in
07:31 50.0 °F 34.5 °F 30.25 in Calm   -999.0 mph 55% 0 in
07:47 52.2 °F 36.5 °F 30.25 in Calm   -999.0 mph 55% 0 in
08:02 53.4 °F 36.2 °F 30.25 in SE 1.7 mph -999.0 mph 52% 0 in
08:17 56.8 °F 36.2 °F 30.26 in Calm   -999.0 mph 46% 0 in
08:32 59.9 °F 32.9 °F 30.26 in ESE 1.1 mph -999.0 mph 36% 0 in
08:48 63.3 °F 30.5 °F 30.26 in Calm   -999.0 mph 29% 0 in
09:03 64.2 °F 27.6 °F 30.26 in NNW 1.7 mph -999.0 mph 25% 0 in
09:18 66.2 °F 26.2 °F 30.26 in NW 4.7 mph -999.0 mph 22% 0 in
09:33 67.1 °F 27.0 °F 30.26 in SSW 2.7 mph -999.0 mph 22% 0 in
09:48 68.2 °F 27.9 °F 30.26 in North 2.7 mph -999.0 mph 22% 0 in
10:04 70.5 °F 22.1 °F 30.27 in South 1.7 mph -999.0 mph 16% 0 in
10:20 71.1 °F 26.7 °F 30.27 in SSE 1.7 mph -999.0 mph 19% 0 in
10:35 72.0 °F 23.3 °F 30.27 in WSW 1.7 mph -999.0 mph 16% 0 in
10:50 74.7 °F 24.0 °F 30.27 in West 1.1 mph -999.0 mph 15% 0 in
11:05 76.6 °F 20.2 °F 30.27 in SE 3.2 mph -999.0 mph 12% 0 in
11:21 77.0 °F 22.4 °F 30.27 in NW 5.8 mph -999.0 mph 13% 0 in
11:36 77.0 °F 20.5 °F 30.26 in SSE 4.7 mph -999.0 mph 12% 0 in
11:51 78.6 °F 23.6 °F 30.27 in NNE 1.7 mph -999.0 mph 13% 0 in
12:06 77.9 °F 33.6 °F 30.26 in WNW 2.7 mph -999.0 mph 20% 0 in
12:21 80.2 °F 28.4 °F 30.27 in WNW 3.7 mph -999.0 mph 15% 0 in
12:37 79.3 °F 30.7 °F 30.26 in NNW 3.2 mph -999.0 mph 17% 0 in
12:52 80.1 °F 29.9 °F 30.27 in NNE 4.7 mph -999.0 mph 16% 0 in
13:07 81.3 °F 29.2 °F 30.26 in NE 2.7 mph -999.0 mph 15% 0 in
13:23 81.7 °F 32.6 °F 30.26 in SE 3.2 mph -999.0 mph 17% 0 in
13:38 82.2 °F 31.5 °F 30.26 in SSW 5.8 mph -999.0 mph 16% 0 in
13:53 82.8 °F 35.0 °F 30.26 in NW 5.3 mph -999.0 mph 18% 0 in
14:08 82.4 °F 33.2 °F 30.26 in West 2.2 mph -999.0 mph 17% 0 in
14:23 82.8 °F 35.0 °F 30.25 in NW 1.7 mph -999.0 mph 18% 0 in
14:39 82.2 °F 33.1 °F 30.25 in SSW 2.7 mph -999.0 mph 17% 0 in
14:54 81.1 °F 30.7 °F 30.25 in SE 2.2 mph -999.0 mph 16% 0 in
15:09 80.8 °F 33.3 °F 30.24 in WSW 3.7 mph -999.0 mph 18% 0 in
15:24 78.8 °F 34.3 °F 30.24 in SW 1.7 mph -999.0 mph 20% 0 in
15:40 78.6 °F 34.2 °F 30.24 in NE 3.2 mph -999.0 mph 20% 0 in
15:55 78.1 °F 32.5 °F 30.24 in SSW 3.7 mph -999.0 mph 19% 0 in
16:11 78.3 °F 36.3 °F 30.23 in NNW 7.3 mph -999.0 mph 22% 0 in
16:26 77.2 °F 37.6 °F 30.23 in NNW 3.7 mph -999.0 mph 24% 0 in
16:42 76.5 °F 39.1 °F 30.23 in West 2.2 mph -999.0 mph 26% 0 in
16:57 77.7 °F 41.1 °F 30.23 in NNW 5.3 mph -999.0 mph 27% 0 in
17:12 78.6 °F 41.8 °F 30.22 in East 3.2 mph -999.0 mph 27% 0 in
17:27 79.3 °F 43.4 °F 30.22 in NNE 2.2 mph -999.0 mph 28% 0 in
17:42 77.4 °F 45.2 °F 30.22 in SSW 4.2 mph -999.0 mph 32% 0 in
17:58 77.7 °F 46.3 °F 30.21 in ESE 1.7 mph -999.0 mph 33% 0 in
18:13 77.2 °F 47.4 °F 30.21 in North 6.8 mph -999.0 mph 35% 0 in
18:28 73.9 °F 46.7 °F 30.21 in SSW 2.2 mph -999.0 mph 38% 0 in
18:43 71.2 °F 45.0 °F 30.21 in NW 2.7 mph -999.0 mph 39% 0 in
18:58 67.8 °F 47.4 °F 30.21 in NW 2.7 mph -999.0 mph 48% 0 in
19:14 65.5 °F 47.9 °F 30.21 in NW 3.2 mph -999.0 mph 53% 0 in
19:29 64.0 °F 48.0 °F 30.21 in WNW 4.2 mph -999.0 mph 56% 0 in
19:44 62.8 °F 47.3 °F 30.21 in Calm   -999.0 mph 57% 0 in
20:00 61.5 °F 48.4 °F 30.21 in West 2.7 mph -999.0 mph 62% 0 in
20:15 60.8 °F 48.1 °F 30.21 in NW 4.7 mph -999.0 mph 63% 0 in
20:30 60.1 °F 47.9 °F 30.21 in Calm   -999.0 mph 64% 0 in
20:46 59.4 °F 46.4 °F 30.21 in Calm   -999.0 mph 62% 0 in
21:01 59.0 °F 45.6 °F 30.21 in Calm   -999.0 mph 61% 0 in
21:16 59.0 °F 43.8 °F 30.22 in SSW 2.2 mph -999.0 mph 57% 0 in
21:32 57.6 °F 39.1 °F 30.22 in Calm   -999.0 mph 50% 0 in
21:47 57.2 °F 40.7 °F 30.22 in SE 1.1 mph -999.0 mph 54% 0 in
22:02 56.7 °F 40.2 °F 30.22 in Calm   -999.0 mph 54% 0 in
22:17 55.9 °F 38.0 °F 30.22 in Calm   -999.0 mph 51% 0 in
22:33 55.9 °F 31.3 °F 30.21 in SSE 2.2 mph -999.0 mph 39% 0 in
22:48 55.0 °F 27.8 °F 30.21 in SSE 1.7 mph -999.0 mph 35% 0 in
23:03 54.3 °F 23.5 °F 30.22 in SSE 2.2 mph -999.0 mph 30% 0 in
23:19 54.1 °F 19.0 °F 30.22 in South 2.7 mph -999.0 mph 25% 0 in
23:34 53.2 °F 18.3 °F 30.22 in SSE 2.2 mph -999.0 mph 25% 0 in
23:49 53.8 °F 11.2 °F 30.21 in South 2.2 mph -999.0 mph 18% 0 in
Big Bear CA Weather